Home   Weather   Prešov   Past weeks

Flag for Slovakia Past Weather in Prešov, Slovakia — Yesterday and Last 2 Weeks

48 °F

Light rain. Fog.

Feels Like: 48 °F
Forecast: 41 / 51 °F
Wind: 1 mph from North

Location: Kosice - Barca

Current Time: Oct 21, 2016 at 1:15:16 PM

Latest Report: Oct 21, 2016 at 12:30 PM

Visibility: 3 mi

Pressure: 29.98 "Hg

Humidity: 94%

Dew Point: 46 °F

Location of PrešovLocation

Past Weather in Prešov — Graph


Prešov Temperature Yesterday

Maximum temperature yesterday: 54 °F (at 1:30 PM)
Minimum temperature yesterday: 46 °F (at 12:00 AM)
Average temperature yesterday: 49 °F

High & Low Weather Summary for the Past Weeks

High61 °F (Oct 15, 3:30 PM)100% (Oct 8, 3:30 AM)30.42 "Hg (Oct 8, 3:30 AM)
Low32 °F (Oct 8, 3:30 AM)52% (Oct 15, 3:30 PM)29.83 "Hg (Oct 12, 5:00 AM)
Average46 °F83%30.11 "Hg
* Reported Oct 6 12:00 PM — Oct 21 12:00 PM, Prešov, Weather by CustomWeather, © 2016

Note: Actual official high and low records may vary slightly from our data, if they occured in-between our weather recording intervals... More about our weather records


Prešov Weather History for the Previous 24 Hours

Scroll right to see more
Time TempWeatherWind HumidityBarometerVisibility
12:00 PM
Fri, Oct 21
48 °FLight rain. More clouds than sun.3 mph94%29.98 "Hg5 mi
11:30 AM48 °FLight rain. More clouds than sun.5 mph94%29.98 "Hg5 mi
11:00 AM48 °FRain. More clouds than sun.3 mph94%30.01 "Hg4 mi
10:30 AM48 °FLight rain. More clouds than sun.1 mph94%30.01 "HgN/A
10:00 AM48 °FLight rain. More clouds than sun.2 mph94%30.01 "HgN/A
9:30 AM48 °FLight rain. More clouds than sun.6 mph94%30.01 "HgN/A
9:00 AM48 °FLight rain. More clouds than sun.5 mph94%30.01 "HgN/A
8:30 AM48 °FLight rain. More clouds than sun.5 mph94%30.01 "HgN/A
8:00 AM48 °FLight rain. More clouds than sun.7 mph94%30.01 "HgN/A
7:30 AM48 °FLight rain. Mostly cloudy.5 mph94%30.01 "HgN/A
7:00 AM48 °FMostly cloudy.1 mph94%30.01 "HgN/A
6:30 AM48 °FLight rain. Mostly cloudy.3 mph94%30.01 "HgN/A
6:00 AM48 °FLight rain. Overcast.7 mph94%30.01 "HgN/A
5:30 AM48 °FLight rain. Mostly cloudy.8 mph94%29.98 "HgN/A
5:00 AM50 °FLight rain. Mostly cloudy.13 mph88%29.98 "HgN/A
4:30 AM50 °FLight rain. Mostly cloudy.10 mph88%29.98 "HgN/A
4:00 AM50 °FOvercast.12 mph88%29.98 "HgN/A
3:30 AM50 °FOvercast.9 mph88%30.01 "HgN/A
3:00 AM50 °FOvercast.8 mph88%30.01 "HgN/A
2:30 AM50 °FOvercast.8 mph94%30.01 "HgN/A
2:00 AM50 °FMostly cloudy.7 mph88%30.01 "HgN/A
1:30 AM50 °FOvercast.5 mph88%30.01 "HgN/A
1:00 AM50 °FMostly cloudy.5 mph88%30.01 "HgN/A
12:30 AM50 °FLight rain. Overcast.7 mph88%30.01 "HgN/A
12:00 AM50 °FLight rain. Overcast.5 mph88%30.01 "HgN/A
11:30 PM
Thu, Oct 20
50 °FLight rain. Overcast.1 mph88%30.01 "HgN/A
11:00 PM52 °FLight rain. Overcast.1 mph77%29.98 "HgN/A
10:30 PM50 °FLight rain. Overcast.2 mph88%30.01 "HgN/A
10:00 PM50 °FOvercast.1 mph88%30.01 "HgN/A
9:30 PM50 °FLight rain. Overcast.6 mph94%29.98 "HgN/A
9:00 PM50 °FLight rain. Overcast.3 mph94%30.01 "HgN/A
8:30 PM50 °FLight rain. Overcast.2 mph94%30.01 "HgN/A
8:00 PM50 °FLight rain. Overcast.1 mph88%30.01 "HgN/A
7:30 PM52 °FLight rain. Overcast.3 mph82%30.01 "HgN/A
7:00 PM52 °FLight rain. Overcast.2 mph77%30.01 "HgN/A
6:30 PM52 °FOvercast.3 mph77%30.01 "HgN/A
6:00 PM52 °FPassing clouds.2 mph77%30.01 "HgN/A
5:30 PM54 °FPartly sunny.1 mph72%30.01 "HgN/A
5:00 PM54 °FPartly sunny.3 mph72%30.01 "HgN/A
4:30 PM54 °FPartly sunny.3 mph72%30.01 "HgN/A
4:00 PM54 °FScattered clouds.5 mph72%30.01 "HgN/A
3:30 PM54 °FPartly sunny.6 mph67%30.01 "HgN/A
3:00 PM54 °FScattered clouds.6 mph67%30.04 "HgN/A
2:30 PM54 °FPassing clouds.9 mph67%30.04 "HgN/A
2:00 PM54 °FPassing clouds.3 mph67%30.04 "HgN/A
1:30 PM54 °FScattered clouds.3 mph67%30.07 "HgN/A
1:00 PM52 °FScattered clouds.5 mph72%30.07 "HgN/A
Weather by CustomWeather, © 2016

See weather overviewHow to use our weather pages